Tracking 21082 objects as of 6-Aug-2020
HD Live streaming from Space Station
objects crossing your sky now

MICROSAT-R DEB


MICROSAT-R DEB is no longer on orbit


NORAD ID: 44179
Int'l Code: 2019-006BS
Perigee: N/A
Apogee: N/A
Inclination: N/A
Period: N/A
Semi major axis: N/A
RCS: N/A
Launch date: January 24, 2019
Source: India (IND)
Launch site: SRIHARIKOTA (SRI)
Decay date: 2020-01-01

Note: This is SATELLITE DEBRIS
aabbcc
Your satellite tracking list
Your tracking list is empty




NASA's NSSDC Master Catalog

Two Line Element Set (TLE):
1 44179U 19006BS  20001.48686211  .10863497  17110-5  39052-3 0  9995
2 44179  96.0882 244.7045 0010529  58.9959 301.2379 16.43418339 42865
Source of the keplerian elements: AFSPC